Regional Weather Roundup
Issued by NWS

Home | Current Version | Previous Version | Text Only | Print | Product List | Glossary On
Versions: 1 2 3 4 5 6 7 8 9 10 11 12 13 14 15 16 17 18 19 20 21 22 23 24 25 26 27 28 29 30 31 32 33 34 35 36 37 38 39 40 41 42 43 44 45 46 47 48 49 50
000
ASUS43 KMKX 242025
RWRWI

WISCONSIN REGIONAL WEATHER ROUNDUP
NATIONAL WEATHER SERVICE MILWAUKEE/SULLIVAN WI
300 PM CDT FRI OCT 24 2014

NOTE: "FAIR" INDICATES FEW OR NO CLOUDS BELOW 12,000 FEET WITH NO
SIGNIFICANT WEATHER AND/OR OBSTRUCTIONS TO VISIBILITY.

WIZ001-002-006>008-014>016-023>028-242100-
NORTHWEST WISCONSIN

CITY           SKY/WX    TMP DP  RH WIND       PRES   REMARKS
SUPERIOR ARPT  SUNNY     71  54  54 SW12G17   29.75S
ASHLAND        SUNNY     69  50  50 S15G22    29.78F
HAYWARD        CLOUDY    63  51  65 S13       29.82F
SIREN          PTSUNNY   64  52  66 S10       29.81F
CUMBERLAND     CLOUDY    59  50  72 SW13      29.84F
RICE LAKE      CLOUDY    59  50  71 S8G16     29.85F
CHETEK         CLOUDY    58  51  76 SE6       29.85F
LADYSMITH      CLOUDY    60  50  69 S10       29.86F
EAU CLAIRE     CLOUDY    60  50  69 S9        29.85F
MENOMONIE      CLOUDY    59  54  83 S6        29.86S HAZE
NEW RICHMOND   CLOUDY    59  55  86 S9        29.85R
OSCEOLA        CLOUDY    61  56  84 S6        29.86S
$$

WIZ003>005-009-010-017-018-242100-
NORTH CENTRAL WISCONSIN

CITY           SKY/WX    TMP DP  RH WIND       PRES   REMARKS
MANITOWISH WTR MOSUNNY   60  49  67 S9        29.84F
ARBOR VITAE    SUNNY     60  48  65 S9        29.85F
WOODRUFF       SUNNY     60  48  65 S9        29.85F
RHINELANDER    SUNNY     58  45  62 S8        29.88F
EAGLE RIVER    SUNNY     61  43  51 SW6       29.86F
LAND O LAKES   SUNNY     64  43  46 SW9       29.86F
PHILLIPS       MOSUNNY   63  46  55 SW10G23   29.83F
TOMAHAWK       SUNNY     59  47  64 CALM      29.88F
MEDFORD        PTSUNNY   56  49  77 S9        29.87F
MERRILL        SUNNY     56  49  77 S5        29.88F
$$

WIZ029-030-035-036-043>047-242100-
CENTRAL WISCONSIN

CITY           SKY/WX    TMP DP  RH WIND       PRES   REMARKS
WAUSAU         SUNNY     55  48  77 S6        29.89F
MOSINEE        SUNNY     54  54 100 S6        29.91F
MARSHFIELD     CLOUDY    57  50  77 S8        29.88F
STEVENS POINT  SUNNY     55  48  77 S5        29.91F
WAUPACA        MOSUNNY   58  50  74 S6        29.93F
WAUTOMA        CLOUDY    58  50  75 SE6       29.93F
WISC RAPIDS    PTSUNNY   60  49  66 S6        29.91F
CAMP DOUGLAS   CLOUDY    61  54  77 S10       29.89F
$$

WIZ011>013-019>022-031-037>040-048>050-242100-
NORTHEAST WISCONSIN

CITY           SKY/WX    TMP DP  RH WIND       PRES   REMARKS
ANTIGO         SUNNY     55  49  80 S6        29.90F
SHAWANO        CLOUDY    54  49  84 S5        29.93F
OCONTO         PTSUNNY   54  49  83 SW8       29.92S
STURGEON BAY   MOSUNNY   57  48  72 S6        29.93S
GREEN BAY      CLOUDY    53  49  86 SW9       29.94S
MANITOWOC      SUNNY     56  51  84 S8        29.94F
APPLETON       NOT AVBL
CLINTONVILLE   CLOUDY    54  48  82 S6        29.92F
OSHKOSH        CLOUDY    54  51  90 SW8       29.94F
$$

WIZ032>034-041-042-053>061-242100-
SOUTHWEST WISCONSIN

CITY           SKY/WX    TMP DP  RH WIND       PRES   REMARKS
LA CROSSE      CLOUDY    65  52  62 S14       29.86F
SPARTA         CLOUDY    63  49  59 S7        29.89F
VIROQUA        CLOUDY    63  52  67 S10G16    29.89F
BOSCOBEL       MOSUNNY   66  53  63 S10       29.90F
PRAIRIE DU CHI CLOUDY    64  53  69 SE6       29.88F
PLATTEVILLE    MOSUNNY   60  56  84 S12       29.94F
$$

WIZ056-057-062-063-064-067-068-242100-
SOUTH CENTRAL WISCONSIN

CITY           SKY/WX    TMP DP  RH WIND       PRES   REMARKS
REEDSBURG      CLOUDY    61  53  73 S10       29.91F
BARABOO/DELLS  MOSUNNY   60  49  66 S10       29.92F
LONE ROCK      MOSUNNY   66  52  60 S8G18     29.92F
MINERAL POINT  MOSUNNY   63  54  72 S10       29.93F
MADISON        PTSUNNY   58  51  78 S7        29.95F
MIDDLETON      PTSUNNY   64  50  62 S10       29.95F
WATERTOWN      MOSUNNY   56  52  85 S7        29.95F
MONROE         MOSUNNY   59  52  77 S8        29.96F
JANESVILLE     PTSUNNY   57  52  82 SW8       29.97F
$$

WIZ051-052-058>065-066-070>072-242100-
SOUTHEAST WISCONSIN

CITY           SKY/WX    TMP DP  RH WIND       PRES   REMARKS
MILWAUKEE      PTSUNNY   60  51  72 SW9       29.97F
WAUKESHA       SUNNY     59  50  72 SW7       29.97F
MILWAUKEE/TIMM SUNNY     61  48  63 SW7       29.97F
RACINE         SUNNY     59  50  72 W9        29.98F
BURLINGTON     SUNNY     58  49  73 SW6       29.97F
KENOSHA        SUNNY     60  52  74 SW6       29.97F
FOND DU LAC    MOSUNNY   56  50  80 SW8       29.94F
SHEBOYGAN      SUNNY     62  49  62 SW10      29.94F
WEST BEND      MOSUNNY   59  48  67 SW5       29.95F
JUNEAU         MOSUNNY   55  50  83 S7        29.96F
$$

LSZ147-162-242100-
LAKE SUPERIOR

STATION/POSITION TIME  TEMP    WIND        PRES    WAVE
                       AIR SEA DIR/SP/G            HT/PER
                 (UTC) (F)     (DEG/KT/KT) (MB)    (FT/S)
W MID LAKE BUOY  1950   50 47  170/  4/  6 1008.3F   1
DEVILS ISLAND    2000   51      10/  2/  3 1008.1F
PORT WING        1900   55      40/  5/  5 1008.5F
SAXON HARBOR     1900   69     200/ 11/ 19 1008.8F
$$

LMZ867-665-643>646-242100-
LAKE MICHIGAN

STATION/POSITION TIME  TEMP    WIND        PRES    WAVE
                       AIR SEA DIR/SP/G            HT/PER
                 (UTC) (F)     (DEG/KT/KT) (MB)    (FT/S)
CHAMBERS ISLAND  1900   49     200/  6/ 12 1013.5F
N MID LAKE BUOY  1950   50 51  210/ 16/ 17 1013.2F   2/ 3
NORTHPORT PIER   1900   51     210/  3/  8 1013.5F
SISTER BAY       1928          200/  9/ 10   N/A
ALGOMA LAKESHORE 1856          220/ 12/ 14   N/A
KEWAUNEE LAKESHO 2000   51     170/ 12/ 13 1012.7F
SHEBOYGAN LAKESH 2000   50 51  170/ 14/ 16 1014.5F
PORT WASHINGTON  1900   53     150/  6/  8 1015.2F
ATWATER BUOY     2000   53     150/ 10/ 12 1015.5F
MILWAUKEE LAKESH 1900   56     170/  6/  6   N/A
S MID LAKE BUOY  1950   52 54  210/  6/  8 1015.4F   1
KENOSHA   LAKESH 2000   58     140/  7/  8 1014.9F
$$

TC  - TEMPERATURE IN CELSIUS
VSB - VISIBILITY IN STATUTE MILES
WCI - WIND CHILL INDEX
HX  - HEAT INDEX




USA.gov is the U.S. government's official web portal to all federal, state and local government web resources and services.